Flag for U.S.A. Weather past 2 weeks in Pierre, South Dakota, U.S.A.

Now
83 °F

Sunny.


Feels Like: 82 °F
Forecast: 65 / 88 °F
Wind: 17 mph from Southeast

Location: Pierre Regional Airport

Current Time: Aug 4, 2015 at 7:07:57 PM

Latest Report: Aug 4, 2015 at 5:53 PM


Visibility: 10 mi

Pressure: 29.87 "Hg

Humidity: 41%

Dew point: 57 °F

Location of PierreLocation

Historic Weather in Pierre — Graph

°F

Pierre temperature yesterday

Maximum temperature yesterday: 86 °F (at 5:53 PM)
Minimum temperature yesterday: 56 °F (at 5:53 AM)
Average temperature yesterday: 71 °F

Past Weeks' High & Low Weather Summary

 TemperatureHumidityPressure
High97 °F (Jul 23, 3:53 PM)100% (Jul 26, 3:53 AM)30.13 "Hg (Jul 26, 3:53 AM)
Low54 °F (Jul 21, 4:53 AM)17% (Jul 29, 3:53 PM)29.55 "Hg (Jul 27, 7:53 PM)
Average75 °F59%29.87 "Hg
* Reported Jul 20 5:53 PM — Aug 4 5:53 PM, Pierre, Weather by CustomWeather, © 2015

Note: Actual official high and low records may vary slightly from our data, if they occured in-between our weather recording intervals... More about our weather records

Advertising

Pierre weather history for previous 24 hours

 ConditionsComfort  
Time TempWeatherWind HumidityBarometerVisibility
5:53 PM
Tue, Aug 4
83 °FSunny.17 mph41%29.87 "Hg10 mi
4:53 PM85 °FSunny.18 mph37%29.88 "Hg10 mi
3:53 PM83 °FSunny.14 mph48%29.89 "Hg10 mi
2:53 PM82 °FSunny.16 mph51%29.90 "Hg10 mi
1:53 PM80 °FSunny.13 mph49%29.90 "Hg10 mi
12:53 PM80 °FSunny.12 mph49%29.90 "Hg10 mi
11:53 AM78 °FSunny.9 mph56%29.90 "Hg10 mi
10:53 AM74 °FSunny.9 mph67%29.91 "Hg10 mi
9:53 AM69 °FSunny.5 mph79%29.92 "Hg10 mi
8:53 AM68 °FPassing clouds.10 mph82%29.92 "Hg10 mi
7:53 AM65 °FSunny.12 mph78%29.86 "Hg10 mi
6:53 AM65 °FClear.5 mph76%29.91 "Hg10 mi
5:53 AM65 °FPassing clouds.5 mph78%29.92 "Hg10 mi
4:53 AM66 °FPassing clouds.10 mph73%29.92 "Hg10 mi
3:53 AM67 °FPassing clouds.9 mph68%29.88 "Hg10 mi
2:53 AM65 °FPartly cloudy.7 mph73%29.88 "Hg10 mi
1:53 AM65 °FClear.9 mph76%29.89 "Hg10 mi
12:53 AM65 °FPassing clouds.8 mph73%29.90 "Hg10 mi
11:53 PM
Mon, Aug 3
67 °FClear.7 mph68%29.90 "Hg10 mi
10:53 PM69 °FClear.7 mph63%29.91 "Hg10 mi
9:53 PM70 °FSunny.6 mph64%29.90 "Hg10 mi
8:53 PM76 °FSunny.5 mph50%29.89 "Hg10 mi
7:53 PM81 °FSunny.6 mph42%29.88 "Hg10 mi
Weather by CustomWeather, © 2015

See weather overviewHow to use our weather pages